Weather History for K3LF - March, 2013

Change the Weather History Date:

Wednesday, March 20, 2013

  Actual Average (KSPI) Record (KSPI)
Temperature  
Mean Temperature 28 °F 44 °F  
Max Temperature 32 °F 54 °F 82 °F (2012)
Min Temperature 23 °F 34 °F 10 °F (1965)
Degree Days  
Heating Degree Days 38 21  
Month to date heating degree days 500  
Since 1 July heating degree days 4771  
Cooling Degree Days 0 0  
Month to date cooling degree days 0  
Year to date cooling degree days 0  
Moisture  
Dew Point 16 °F    
Average Humidity 63    
Maximum Humidity 77    
Minimum Humidity 48    
Precipitation  
Precipitation 0.00 in 0.09 in 1.92 in (1962)
Month to date precipitation 1.64  
Year to date precipitation 5.27  
Snow  
Snow 0.00 in 0.10 in 3.90 in (1881)
Month to date snowfall 2.0  
Since 1 July snowfall 20.1  
Snow Depth -    
Sea Level Pressure  
Sea Level Pressure 30.17 in    
Wind  
Wind Speed 13 mph (WNW)    
Max Wind Speed 25 mph    
Max Gust Speed 32 mph    
Visibility 10 miles    
Events      
T = Trace of Precipitation, MM = Missing Value Source: NWS Daily Summary

Daily Weather History Graph

Daily Weather History Graph

Search for Another Location

Airport or City:

Trip Planner

Search our weather history database for the weather conditions in past years. The results will help you decide how hot, cold, wet, or windy it might be!

Date:

Astronomy

Mar. 20, 2013 Rise Set
Actual Time 7:01 AM CDT 7:10 PM CDT
Civil Twilight 6:35 AM CDT 7:37 PM CDT
Nautical Twilight 6:03 AM CDT 8:08 PM CDT
Astronomical Twilight 5:32 AM CDT 8:40 PM CDT
Moon 12:48 PM CDT (3/20) 2:39 AM CDT (3/20)
Length of Visible Light 13h 02m
Length of Day
12h 09m
First Quarter, 59% of the Moon is Illuminated
Mar 20
First Quarter
Mar 27
Full
Apr 2
Last Quarter
Apr 10
New
Apr 18
First Quarter

Hourly Weather History & Observations

Time (CDT) Temp. Windchill Dew Point Humidity Pressure Visibility Wind Dir Wind Speed Gust Speed Precip Events Conditions
12:15 AM 32.2 °F 25.8 °F 22.8 °F 68% 30.16 in 10.0 mi West 6.9 mph - N/A   Clear
12:35 AM 32.9 °F 25.3 °F 21.9 °F 64% 30.15 in 10.0 mi West 9.2 mph - N/A   Clear
12:55 AM 32.9 °F 25.3 °F 22.1 °F 65% 30.15 in 10.0 mi West 9.2 mph - N/A   Clear
1:15 AM 32.5 °F 24.8 °F 21.9 °F 65% 30.15 in 10.0 mi West 9.2 mph - N/A   Clear
1:35 AM 32.0 °F 25.6 °F 22.5 °F 68% 30.15 in 10.0 mi WSW 6.9 mph - N/A   Clear
1:55 AM 32.0 °F 24.8 °F 22.8 °F 69% 30.14 in 10.0 mi WSW 8.1 mph - N/A   Clear
2:15 AM 32.0 °F 24.2 °F 22.5 °F 68% 30.13 in 10.0 mi WSW 9.2 mph - N/A   Clear
2:35 AM 32.0 °F 23.6 °F 22.3 °F 67% 30.13 in 10.0 mi West 10.4 mph - N/A   Clear
2:55 AM 32.5 °F 22.3 °F 22.8 °F 67% 30.14 in 10.0 mi West 15.0 mph - N/A   Clear
3:15 AM 32.7 °F 22.5 °F 24.1 °F 71% 30.13 in 10.0 mi West 15.0 mph - N/A   Clear
3:35 AM 32.0 °F 22.1 °F 24.8 °F 75% 30.13 in 10.0 mi WNW 13.8 mph - N/A   Clear
3:55 AM 31.5 °F 20.1 °F 23.5 °F 73% 30.14 in 10.0 mi NNW 17.3 mph 21.9 mph N/A   Clear
4:15 AM 29.1 °F 20.0 °F 21.6 °F 73% 30.15 in 10.0 mi NNW 10.4 mph - N/A   Clear
4:35 AM 28.4 °F 19.7 °F 21.2 °F 74% 30.15 in 10.0 mi NNW 9.2 mph - N/A   Clear
4:55 AM 28.2 °F 20.2 °F 21.7 °F 77% 30.15 in 10.0 mi NW 8.1 mph - N/A   Clear
5:15 AM 28.4 °F 18.0 °F 21.6 °F 76% 30.16 in 10.0 mi NW 12.7 mph - N/A   Clear
5:35 AM 28.4 °F 17.5 °F 20.7 °F 73% 30.16 in 10.0 mi NW 13.8 mph - N/A   Clear
5:55 AM 27.9 °F 16.8 °F 21.0 °F 75% 30.16 in 10.0 mi NW 13.8 mph - N/A   Clear
6:15 AM 27.5 °F 15.4 °F 21.2 °F 77% 30.17 in 10.0 mi NW 16.1 mph 19.6 mph N/A   Clear
6:35 AM 27.3 °F 14.0 °F 20.1 °F 74% 30.18 in 10.0 mi NW 19.6 mph 23.0 mph N/A   Scattered Clouds
6:55 AM 27.5 °F 15.4 °F 20.3 °F 74% 30.19 in 10.0 mi NW 16.1 mph 24.2 mph N/A   Mostly Cloudy
7:15 AM 26.6 °F 12.7 °F 17.8 °F 69% 30.20 in 10.0 mi NW 20.7 mph 25.3 mph N/A   Overcast
7:35 AM 25.7 °F 13.1 °F 16.9 °F 69% 30.21 in 10.0 mi NW 16.1 mph 24.2 mph N/A   Scattered Clouds
8:15 AM 23.7 °F 8.2 °F 12.7 °F 63% 30.23 in 10.0 mi NW 23.0 mph 31.1 mph N/A   Clear
8:35 AM 23.5 °F 8.3 °F 12.6 °F 63% 30.23 in 10.0 mi NW 21.9 mph 32.2 mph N/A   Clear
8:55 AM 23.2 °F 6.8 °F 11.5 °F 61% 30.24 in 10.0 mi NW 25.3 mph 29.9 mph N/A   Clear
9:15 AM 23.0 °F 8.3 °F 11.1 °F 60% 30.24 in 10.0 mi NW 19.6 mph 26.5 mph N/A   Clear
9:35 AM 23.4 °F 8.8 °F 10.9 °F 59% 30.25 in 10.0 mi WNW 19.6 mph 23.0 mph N/A   Clear
9:55 AM 23.0 °F 8.0 °F 10.8 °F 60% 30.25 in 10.0 mi NW 20.7 mph 27.6 mph N/A   Clear
10:15 AM 24.1 °F 11.5 °F 12.4 °F 61% 30.25 in 10.0 mi WNW 15.0 mph 23.0 mph N/A   Clear
10:35 AM 25.9 °F 13.3 °F 12.4 °F 57% 30.25 in 10.0 mi NW 16.1 mph 26.5 mph N/A   Clear
10:55 AM 24.3 °F 10.4 °F 12.9 °F 62% 30.25 in 10.0 mi WNW 18.4 mph - N/A   Scattered Clouds
11:15 AM 24.4 °F 11.0 °F 13.8 °F 64% 30.26 in 10.0 mi WNW 17.3 mph 26.5 mph N/A   Scattered Clouds
11:35 AM 24.4 °F 10.6 °F 14.5 °F 66% 30.25 in 10.0 mi WNW 18.4 mph 21.9 mph N/A   Mostly Cloudy
11:55 AM 25.5 °F 13.8 °F 13.8 °F 61% 30.25 in 10.0 mi NW 13.8 mph 23.0 mph N/A   Mostly Cloudy
12:15 PM 25.3 °F 12.6 °F 13.6 °F 61% 30.24 in 10.0 mi NW 16.1 mph 23.0 mph N/A   Mostly Cloudy
12:35 PM 25.7 °F 11.9 °F 13.5 °F 60% 30.23 in 10.0 mi NW 19.6 mph 26.5 mph N/A   Mostly Cloudy
12:55 PM 25.9 °F 13.3 °F 14.2 °F 61% 30.22 in 10.0 mi WNW 16.1 mph 23.0 mph N/A   Mostly Cloudy
1:15 PM 26.6 °F 14.3 °F 15.4 °F 63% 30.22 in 10.0 mi NW 16.1 mph - N/A   Mostly Cloudy
1:35 PM 26.6 °F 13.8 °F 11.8 °F 54% 30.21 in 10.0 mi NW 17.3 mph 26.5 mph N/A   Scattered Clouds
1:55 PM 28.6 °F 15.3 °F 14.5 °F 56% 30.19 in 10.0 mi WNW 20.7 mph 27.6 mph N/A   Scattered Clouds
2:15 PM 28.6 °F 16.4 °F 15.3 °F 58% 30.19 in 10.0 mi West 17.3 mph 26.5 mph N/A   Mostly Cloudy
2:35 PM 30.0 °F 17.5 °F 16.2 °F 56% 30.18 in 10.0 mi WNW 19.6 mph 25.3 mph N/A   Mostly Cloudy
2:55 PM 29.8 °F 17.7 °F 15.8 °F 56% 30.17 in 10.0 mi WNW 18.4 mph 26.5 mph N/A   Mostly Cloudy
3:15 PM 30.6 °F 19.0 °F 17.1 °F 57% 30.17 in 10.0 mi WNW 17.3 mph 25.3 mph N/A   Mostly Cloudy
3:35 PM 30.2 °F 17.4 °F 15.8 °F 55% 30.16 in 10.0 mi West 20.7 mph 26.5 mph N/A   Scattered Clouds
3:55 PM 29.7 °F 16.7 °F 15.1 °F 55% 30.16 in 10.0 mi WNW 20.7 mph 27.6 mph N/A   Mostly Cloudy
4:15 PM 29.7 °F 17.8 °F 14.7 °F 54% 30.15 in 10.0 mi WNW 17.3 mph 23.0 mph N/A   Scattered Clouds
4:35 PM 30.7 °F 18.8 °F 15.3 °F 53% 30.15 in 10.0 mi West 18.4 mph 24.2 mph N/A   Mostly Cloudy
4:55 PM 30.2 °F 18.1 °F 16.2 °F 56% 30.15 in 10.0 mi West 18.4 mph 24.2 mph N/A   Mostly Cloudy
5:15 PM 28.9 °F 17.3 °F 14.9 °F 56% 30.15 in 10.0 mi WNW 16.1 mph 25.3 mph N/A   Mostly Cloudy
5:35 PM 29.1 °F 17.9 °F 13.6 °F 52% 30.14 in 10.0 mi NW 15.0 mph 24.2 mph N/A   Mostly Cloudy
5:55 PM 28.4 °F 18.0 °F 12.0 °F 50% 30.14 in 10.0 mi NW 12.7 mph 21.9 mph N/A   Scattered Clouds
6:15 PM 28.8 °F 17.0 °F 11.3 °F 48% 30.14 in 10.0 mi NW 16.1 mph 23.0 mph N/A   Scattered Clouds
6:35 PM 28.8 °F 16.2 °F 13.3 °F 52% 30.14 in 10.0 mi WNW 18.4 mph - N/A   Scattered Clouds
6:55 PM 28.4 °F 15.4 °F 12.9 °F 52% 30.14 in 10.0 mi WNW 19.6 mph 24.2 mph N/A   Scattered Clouds
7:15 PM 28.0 °F 16.1 °F 12.0 °F 51% 30.13 in 10.0 mi WNW 16.1 mph 20.7 mph N/A   Scattered Clouds
7:55 PM 27.5 °F 17.4 °F 13.3 °F 55% 30.13 in 10.0 mi WNW 11.5 mph - N/A   Clear
8:15 PM 27.3 °F 18.4 °F 12.2 °F 53% 30.13 in 10.0 mi WNW 9.2 mph - N/A   Clear
8:35 PM 27.1 °F 18.2 °F 13.8 °F 57% 30.12 in 10.0 mi WNW 9.2 mph - N/A   Clear
8:55 PM 26.6 °F 19.1 °F 14.0 °F 59% 30.11 in 10.0 mi WNW 6.9 mph - N/A   Clear
9:15 PM 26.4 °F 18.9 °F 14.2 °F 60% 30.11 in 10.0 mi NW 6.9 mph - N/A   Clear
9:35 PM 25.9 °F 20.3 °F 15.1 °F 64% 30.11 in 10.0 mi WNW 4.6 mph - N/A   Clear
9:55 PM 25.7 °F 20.1 °F 15.3 °F 65% 30.11 in 10.0 mi NW 4.6 mph - N/A   Clear
10:15 PM 25.2 °F 17.3 °F 14.7 °F 65% 30.10 in 10.0 mi NW 6.9 mph - N/A   Clear
10:35 PM 25.3 °F 18.5 °F 14.4 °F 63% 30.11 in 10.0 mi WNW 5.8 mph - N/A   Clear
10:55 PM 25.2 °F 18.3 °F 14.5 °F 64% 30.11 in 10.0 mi NW 5.8 mph - N/A   Clear
11:15 PM 24.1 °F 16.0 °F 16.2 °F 72% 30.10 in 10.0 mi NNW 6.9 mph - N/A   Clear
11:35 PM 24.3 °F 13.3 °F 13.3 °F 63% 30.10 in 10.0 mi NNW 11.5 mph - N/A   Clear
11:55 PM 24.1 °F 13.7 °F 13.5 °F 64% 30.10 in 10.0 mi NNW 10.4 mph - N/A   Clear